Location: Pitton
(51.0667°N, 1.7000°W)
Time: 00:43:08
(UTC+00:00)

SPOT 5 - Pass Details

Date: 17 September 2019
Orbit: 624 x 814 km, 98.3° (Epoch: 13 October)

Event Time Altitude Azimuth Distance (km) Brightness Sun altitude
Exits shadow 20:21:04 22° 66° (ENE) 1,540 4.2 -19.3°
Maximum altitude 20:21:30 22° 58° (ENE) 1,533 4.3 -19.4°
Drops below altitude 10° 20:25:17 10° 8° (N) 2,266 5.7 -19.9°
Sets 20:28:03 0° 354° (N) 3,230 6.8 -20.3°
